Home   Weather   Dundalk   Past weeks

Flag for Ireland Past Weather in Dundalk, Ireland — Yesterday and Last 2 Weeks

Now
56 °F

Cool.


Feels Like: 51 °F
Forecast: 48 / 57 °F
Wind: 17 mph from Southwest

Location: Glenanne

Current Time: Sep 25, 2016 at 3:00:16 PM

Latest Report: Sep 25, 2016 at 2:00 PM


Visibility: 31 mi

Pressure: 29.74 "Hg

Humidity: 68%

Dew Point: 45 °F

Location of DundalkLocation

Past Weather in Dundalk — Graph

°F

Dundalk Temperature Yesterday

Maximum temperature yesterday: 62 °F (at 2:00 PM)
Minimum temperature yesterday: 55 °F (at 10:00 PM)
Average temperature yesterday: 59 °F

High & Low Weather Summary for the Past Weeks

 TemperatureHumidityPressure
High71 °F (Sep 14, 3:00 PM)100% (Sep 13, 5:00 AM)30.29 "Hg (Sep 13, 5:00 AM)
Low43 °F (Sep 22, 5:00 AM)61% (Sep 10, 2:00 PM)29.44 "Hg (Sep 12, 5:00 AM)
Average55 °F88%29.92 "Hg
* Reported Sep 10 1:00 PM — Sep 25 1:00 PM, Dundalk, Weather by CustomWeather, © 2016

Note: Actual official high and low records may vary slightly from our data, if they occured in-between our weather recording intervals... More about our weather records

Advertising

Dundalk Weather History for the Previous 24 Hours

Scroll right to see more
 ConditionsComfort  
Time TempWeatherWind HumidityBarometerVisibility
1:00 PM
Sun, Sep 25
55 °FCool.18 mph72%29.72 "Hg19 mi
12:00 PM56 °FCool.15 mph71%29.71 "Hg12 mi
11:00 AM55 °FCool.14 mph81%29.70 "Hg17 mi
10:00 AM51 °FCool.12 mph88%29.69 "Hg15 mi
9:00 AM49 °FCool.10 mph93%29.68 "Hg14 mi
8:00 AM47 °FCool.10 mph95%29.66 "Hg11 mi
7:00 AM47 °FCool.8 mph95%29.63 "Hg12 mi
6:00 AM47 °FCool.12 mph94%29.61 "Hg11 mi
5:00 AM48 °FCool.8 mph91%29.60 "Hg12 mi
4:00 AM49 °FCool.7 mph89%29.58 "Hg13 mi
3:00 AM51 °FCool.8 mph82%29.57 "Hg15 mi
2:00 AM53 °FCool.18 mph87%29.53 "Hg14 mi
1:00 AM53 °FCool.16 mph88%29.53 "Hg14 mi
12:00 AM55 °FCool.17 mph93%29.50 "Hg12 mi
11:00 PM
Sat, Sep 24
55 °FCool.17 mph94%29.53 "Hg13 mi
10:00 PM55 °FCool.17 mph95%29.54 "Hg11 mi
9:00 PM55 °FCool.13 mph96%29.55 "Hg17 mi
8:00 PM56 °FCool.13 mph95%29.54 "Hg19 mi
7:00 PM57 °FCool.12 mph95%29.54 "Hg22 mi
6:00 PM58 °FRain showers. Cloudy.16 mph92%29.53 "Hg22 mi
5:00 PM59 °FDrizzle. Cloudy.15 mph96%29.53 "Hg5 mi
4:00 PM59 °FRain. Cloudy.18 mph94%29.55 "Hg4 mi
3:00 PM60 °FLots of rain. Cloudy.22 mph93%29.57 "Hg5 mi
Weather by CustomWeather, © 2016

See weather overviewHow to use our weather pages